Location: Maiden
(35.5760°N, 81.2120°W)
Time: 09:04:32
(UTC-04:00)

Tiros 1 - Visible Passes

Search period start: 16 May 2021 00:00
Search period end: 26 May 2021 00:00
Orbit: 630 x 664 km, 48.4° (Epoch: 15 May)

Date Brightness Start Highest point End Pass type
(mag) Time Alt. Az. Time Alt. Az. Time Alt. Az.
16 May 9.4 01:32:39 22° NNE 01:32:39 22° NNE 01:34:39 10° NE visible
16 May 9.7 03:10:21 10° NW 03:13:35 18° N 03:16:48 10° NE visible
16 May 9.6 04:53:24 10° NW 04:57:08 22° NNE 05:00:50 10° ENE visible
17 May 9.4 01:56:36 22° NNW 01:56:42 22° NNW 02:00:28 10° NE visible
17 May 9.8 03:37:01 10° NW 03:40:14 17° N 03:43:26 10° NE visible
17 May 8.9 05:19:14 10° NW 05:23:33 33° NNE 05:27:50 10° E visible
18 May 9.4 00:42:41 20° NNE 00:42:41 20° NNE 00:44:27 10° NE visible
18 May 9.8 02:20:15 11° NW 02:23:16 18° N 02:26:32 10° NE visible
18 May 9.6 04:03:09 10° NW 04:06:50 21° NNE 04:10:29 10° ENE visible
18 May 7.8 05:45:01 10° NW 05:49:45 63° NNE 05:54:25 10° ESE visible
18 May 9.1 21:38:29 10° S 21:39:06 12° SSE 21:39:06 12° SSE visible
18 May 9.7 23:28:05 12° NE 23:28:05 12° NE 23:28:24 10° NE visible
19 May 9.4 01:05:33 22° NNW 01:06:23 23° NNW 01:10:15 10° NE visible
19 May 9.9 02:46:43 10° NW 02:49:55 17° N 02:53:06 10° NE visible
19 May 9.0 04:28:59 10° NW 04:33:17 32° NNE 04:37:31 10° E visible
19 May 7.4 22:02:54 10° SSW 22:07:27 44° SE 22:12:02 10° ENE visible
19 May 8.5 23:45:14 10° W 23:49:43 38° NNW 23:54:13 10° NE visible
20 May 9.8 01:29:38 10° NW 01:32:57 18° N 01:36:16 10° NE visible
20 May 9.7 03:12:54 10° NW 03:16:32 21° NNE 03:20:08 10° ENE visible
20 May 7.8 04:54:47 10° NW 04:59:30 58° NNE 05:04:09 10° ESE visible
20 May 7.2 22:28:31 10° SW 22:33:19 81° NW 22:38:10 10° NE visible
21 May 9.4 00:12:10 10° WNW 00:16:05 24° NNW 00:20:00 10° NE visible
21 May 9.9 01:56:24 10° NW 01:59:36 17° N 02:02:48 10° NE visible
21 May 9.0 03:38:45 10° NW 03:43:00 30° NNE 03:47:11 10° E visible
21 May 7.1 05:20:45 10° WNW 05:25:29 66° SW 05:30:08 10° SE visible
21 May 7.6 21:12:45 10° SSW 21:17:14 40° SE 21:21:44 10° ENE visible
21 May 8.5 22:54:54 10° W 22:59:26 41° NNW 23:04:00 10° NE visible
22 May 9.8 00:39:16 10° NW 00:42:39 19° N 00:46:01 10° NE visible
22 May 9.7 02:22:39 10° NW 02:26:13 20° NNE 02:29:47 10° ENE visible
22 May 7.9 04:04:32 10° NW 04:09:14 54° NNE 04:13:52 10° ESE visible
22 May 8.1 05:47:12 10° WNW 05:51:13 27° SW 05:55:11 10° S visible
22 May 7.2 21:38:16 10° SW 21:43:05 88° NNW 21:47:55 10° NE visible
22 May 9.4 23:21:47 10° WNW 23:25:47 25° NNW 23:29:47 10° NE visible
23 May 9.9 01:06:05 10° NW 01:09:17 17° N 01:12:29 10° NE visible
23 May 9.1 02:48:31 10° NW 02:52:42 29° NNE 02:56:51 10° E visible
23 May 7.0 04:30:29 10° WNW 04:35:15 72° SW 04:39:57 10° SE visible
23 May 8.4 22:04:35 10° WSW 22:09:10 43° NNW 22:13:46 10° NE visible
23 May 9.8 23:48:54 10° NW 23:52:19 19° N 23:55:45 10° NE visible
24 May 9.7 01:32:23 10° NW 01:35:54 20° NNE 01:39:25 10° ENE visible
24 May 8.0 03:14:18 10° NW 03:18:59 50° NNE 03:23:36 10° ESE visible
24 May 7.9 04:56:51 10° WNW 05:01:01 30° SW 05:05:07 10° SSE visible
24 May 7.2 20:48:03 10° SW 20:52:50 86° SE 20:57:40 10° NE visible
24 May 9.4 22:31:26 10° WNW 22:35:29 26° NNW 22:39:33 10° NE visible
25 May 9.9 00:15:46 10° NW 00:18:57 17° N 00:22:10 10° NE visible
25 May 9.1 01:58:17 10° NW 02:02:24 27° NNE 02:05:26 15° ENE visible
25 May 8.5 03:40:13 10° NW 03:47:38 26° SE 03:49:45 10° SE visible
25 May 8.9 05:25:59 12° WSW 05:26:34 12° SW 05:28:21 10° SSW visible
25 May 8.4 21:14:17 10° WSW 21:18:53 47° NNW 21:23:33 10° NE visible
25 May 9.8 22:58:32 10° WNW 23:02:00 19° N 23:05:29 10° NE visible
